Location: Cucq
(50.4773°N, 1.6202°E)
Time: 04:33:53
(UTC+00:00)

Cosmos 2233 Rocket - Pass Details

Date: 07 August 2020
Orbit: 952 x 991 km, 82.9° (Epoch: 19 September)

Event Time Altitude Azimuth Distance (km) Brightness Sun altitude
Exits shadow 00:10:41 38° 224° (SW) 1,467 4.5 -23.1°
Maximum altitude 00:13:00 59° 284° (WNW) 1,136 4.3 -23.1°
Drops below altitude 10° 00:19:17 10° 4° (N) 2,767 7.5 -23.0°
Sets 00:21:52 0° 8° (N) 3,719 8.5 -23.0°
